Flag for Jamaica Weather past 2 weeks in May Pen, Jamaica

Now
84 °F

Passing clouds.


Feels Like: 87 °F
Forecast: N/A
Wind: 10 mph from South

Location: Kingston / Norman Manley

Current Time: Jan 28, 2015 at 3:45:49 PM

Latest Report: Jan 28, 2015 at 3:00 PM


Visibility: N/A

Pressure: 29.92 "Hg

Humidity: 58%

Dew point: 68 °F

Location of May PenLocation

Historic Weather in May Pen — Graph

°F

May Pen temperature yesterday

Maximum temperature yesterday: 86 °F (at 1:00 PM)
Minimum temperature yesterday: 77 °F (at 7:00 AM)
Average temperature yesterday: 80 °F

Past Weeks' High & Low Weather Summary

 TemperatureHumidityPressure
High90 °F (Jan 28, 1:00 PM)89% (Jan 15, 12:00 AM)30.07 "Hg (Jan 15, 12:00 AM)
Low73 °F (Jan 17, 7:00 AM)46% (Jan 21, 1:00 PM)29.89 "Hg (Jan 14, 2:00 PM)
Average81 °F72%29.97 "Hg
* Reported Jan 13 2:00 PM — Jan 28 2:00 PM, May Pen, Weather by CustomWeather, © 2014

Note: Actual official high and low records may vary slightly from our data, if they occured in-between our weather recording intervals... More about our weather records

Advertising

May Pen weather history for previous 24 hours

 ConditionsComfort  
Time TempWeatherWind HumidityBarometerVisibility
2:00 PM
Jan 28
84 °FPassing clouds.12 mph58%29.92 "HgN/A
1:00 PM90 °FPassing clouds.8 mph52%29.95 "HgN/A
12:00 PM84 °FPassing clouds.9 mph62%29.95 "HgN/A
11:00 AM82 °FPassing clouds.12 mph58%29.98 "HgN/A
10:00 AM81 °FPassing clouds.13 mph70%30.01 "HgN/A
9:00 AM79 °FPassing clouds.16 mph70%30.01 "HgN/A
8:00 AM79 °FPassing clouds.18 mph74%29.98 "HgN/A
7:00 AM77 °FPassing clouds.18 mph74%29.95 "HgN/A
6:00 AM77 °FPassing clouds.20 mph74%29.95 "HgN/A
5:00 AM77 °FPassing clouds.21 mph74%29.95 "HgN/A
4:00 AM77 °FPassing clouds.20 mph74%29.92 "HgN/A
3:00 AM77 °FPassing clouds.17 mph79%29.92 "HgN/A
2:00 AM77 °FPassing clouds.20 mph74%29.95 "HgN/A
1:00 AM77 °FPassing clouds.18 mph74%29.95 "HgN/A
12:00 AM79 °FPassing clouds.20 mph70%29.95 "HgN/A
11:00 PM
Jan 27
77 °FPassing clouds.22 mph74%29.98 "HgN/A
10:00 PM79 °FPassing clouds.21 mph74%29.98 "HgN/A
9:00 PM79 °FPassing clouds.21 mph70%29.98 "HgN/A
8:00 PM79 °FPassing clouds.20 mph70%29.95 "HgN/A
7:00 PM81 °FPassing clouds.16 mph66%29.95 "HgN/A
6:00 PM79 °FPassing clouds.10 mph74%29.95 "HgN/A
5:00 PM82 °FPartly sunny.6 mph66%29.92 "HgN/A
4:00 PM82 °FScattered clouds.6 mph66%29.92 "HgN/A
3:00 PM82 °FPartly sunny.9 mph62%29.92 "HgN/A
Weather by CustomWeather, © 2014

See weather overviewHow to use our weather pages